sat.trackr.live / text

‹ back to catalog

STARLINK-33837

NORAD 63501 · 2025-071J

PAYLOAD ACTIVE UNKNOWN

§ Identity

Operator
Country
US
Launch date
2025-04-07
Launch site
AFWTR
Launch vehicle
Mass (kg)
RCS (m²)

Purposes: comms

External: N2YO · Heavens-Above · Gunter

§ Orbital elements

Epoch: 2026-09-20T11:00:13.631904Z

Period
94.01 min
Inclination
53.1604°
Eccentricity
0.0001259
Mean motion
15.31718494 rev/d
Perigee alt
469.8 km
Apogee alt
471.5 km
Semi-major
6,848.8 km
B*
3.5037e-4
RAAN
314.2684°
Arg perigee
78.1554°
Mean anomaly
281.9589°
Rev number
8,254

§ Raw data

STARLINK-338371 63501U 25071J   26263.45849111  .00010529  00000+0  35037-3 0  99992 63501  53.1604 314.2684 0001259  78.1554 281.9589 15.31718494 82545

JSON: /api/v1/satellites/63501 · /tle

For live sub-satellite position, see the globe view (requires WebGL).

§ Visibility from observer

Set your observer location to see the next 7 days of passes ≥ 10°. The values pass through the URL so the page stays shareable.

No JS? Fill the form by hand. The geolocation button needs JavaScript.